| time (UTC) | temp F | wind direction | speed MPH | gust MPH | rain 1hr in | rain 24hr in | rain mn in | humidity % | barometer mb |
| 20260906201518 | 88 | 166 | 11.0 | 20.0 | 0.00 | 0.44 | 0.44 | 52 | 1008.5 |
| 20260906200021 | 89 | 152 | 16.0 | 23.0 | 0.00 | 0.44 | 0.44 | 51 | 1008.5 |
| 20260906194514 | 88 | 157 | 12.0 | 18.0 | 0.00 | 0.44 | 0.44 | 53 | 1008.6 |
| 20260906193013 | 87 | 151 | 15.0 | 20.0 | 0.00 | 0.44 | 0.44 | 55 | 1008.7 |
| 20260906191510 | 86 | 137 | 13.0 | 21.0 | 0.00 | 0.44 | 0.44 | 56 | 1008.8 |
| 20260906190008 | 86 | 174 | 15.0 | 22.0 | 0.00 | 0.44 | 0.44 | 59 | 1009.0 |
| 20260906184506 | 85 | 141 | 13.0 | 19.0 | 0.00 | 0.44 | 0.44 | 61 | 1009.0 |
| 20260906183009 | 84 | 166 | 12.0 | 19.0 | 0.00 | 0.44 | 0.44 | 63 | 1009.3 |
| 20260906181504 | 84 | 148 | 13.0 | 21.0 | 0.00 | 0.44 | 0.44 | 63 | 1009.5 |
| 20260906180117 | 83 | 200 | 14.0 | 19.0 | 0.00 | 0.44 | 0.44 | 64 | 1009.8 |
| 20260906174559 | 82 | 174 | 15.0 | 21.0 | 0.00 | 0.44 | 0.44 | 67 | 1010.0 |
| 20260906173054 | 81 | 135 | 13.0 | 21.0 | 0.00 | 0.44 | 0.44 | 69 | 1010.3 |
| 20260906171553 | 80 | 157 | 15.0 | 24.0 | 0.00 | 0.44 | 0.44 | 67 | 1010.6 |
| 20260906170051 | 80 | 148 | 12.0 | 21.0 | 0.00 | 0.44 | 0.44 | 68 | 1010.6 |
| 20260906164548 | 80 | 173 | 11.0 | 20.0 | 0.00 | 0.44 | 0.44 | 68 | 1010.9 |
| 20260906163047 | 79 | 115 | 13.0 | 23.0 | 0.00 | 0.44 | 0.44 | 68 | 1011.0 |
| 20260906161549 | 78 | 122 | 13.0 | 23.0 | 0.00 | 0.44 | 0.44 | 70 | 1011.1 |
| 20260906160044 | 76 | 127 | 14.0 | 24.0 | 0.00 | 0.44 | 0.44 | 74 | 1010.9 |
| 20260906154544 | 76 | 123 | 17.0 | 25.0 | 0.00 | 0.44 | 0.44 | 74 | 1010.5 |
| 20260906153042 | 75 | 134 | 15.0 | 24.0 | 0.00 | 0.44 | 0.44 | 78 | 1010.4 |
| 20260906151542 | 74 | 131 | 14.0 | 21.0 | 0.00 | 0.44 | 0.44 | 83 | 1010.7 |
| 20260906150049 | 72 | 121 | 15.0 | 23.0 | 0.00 | 0.44 | 0.44 | 85 | 1011.0 |
| 20260906144543 | 71 | 94 | 11.0 | 19.0 | 0.00 | 0.44 | 0.44 | 89 | 1011.4 |
| 20260906143039 | 70 | 98 | 9.0 | 16.0 | 0.00 | 0.44 | 0.44 | 91 | 1011.4 |
| 20260906141539 | 69 | 77 | 10.0 | 17.0 | 0.00 | 0.44 | 0.44 | 92 | 1011.5 |
| 20260906140041 | 68 | 91 | 11.0 | 16.0 | 0.00 | 0.44 | 0.44 | 93 | 1011.5 |
| 20260906134541 | 68 | 75 | 10.0 | 13.0 | 0.02 | 0.44 | 0.44 | 93 | 1011.7 |
| 20260906133033 | 68 | 46 | 7.0 | 15.0 | 0.02 | 0.44 | 0.44 | 93 | 1011.8 |
| 20260906131535 | 67 | 90 | 8.0 | 15.0 | 0.02 | 0.44 | 0.44 | 94 | 1011.4 |
| 20260906130031 | 67 | 82 | 6.0 | 11.0 | 0.02 | 0.44 | 0.44 | 94 | 1010.9 |
| 20260906124529 | 66 | 54 | 4.0 | 9.0 | 0.00 | 0.42 | 0.42 | 93 | 1011.2 |
| 20260906123034 | 66 | 83 | 7.0 | 12.0 | 0.00 | 0.42 | 0.42 | 93 | 1011.1 |
| 20260906121538 | 67 | 70 | 9.0 | 14.0 | 0.00 | 0.42 | 0.42 | 93 | 1011.3 |
| 20260906120027 | 67 | 89 | 9.0 | 13.0 | 0.00 | 0.42 | 0.42 | 93 | 1011.3 |
| 20260906114530 | 67 | 54 | 4.0 | 7.0 | 0.00 | 0.42 | 0.42 | 93 | 1010.9 |
| 20260906113041 | 67 | 56 | 5.0 | 10.0 | 0.00 | 0.42 | 0.42 | 93 | 1010.3 |
| 20260906111525 | 67 | 68 | 7.0 | 13.0 | 0.00 | 0.42 | 0.42 | 93 | 1009.9 |
| 20260906110024 | 67 | 79 | 8.0 | 12.0 | 0.01 | 0.42 | 0.42 | 93 | 1009.9 |
| 20260906104529 | 67 | 65 | 7.0 | 11.0 | 0.05 | 0.42 | 0.42 | 93 | 1010.1 |
| 20260906103023 | 67 | 50 | 12.0 | 17.0 | 0.06 | 0.42 | 0.42 | 93 | 1010.0 |
| 20260906101523 | 67 | 57 | 12.0 | 17.0 | 0.07 | 0.42 | 0.42 | 93 | 1010.2 |
| 20260906100021 | 66 | 52 | 12.0 | 22.0 | 0.15 | 0.41 | 0.41 | 92 | 1010.6 |
| 20260906094518 | 67 | 17 | 13.0 | 19.0 | 0.23 | 0.37 | 0.37 | 92 | 1011.1 |
| 20260906093017 | 67 | 359 | 11.0 | 19.0 | 0.36 | 0.36 | 0.36 | 92 | 1010.4 |
| 20260906091529 | 67 | 23 | 14.0 | 21.0 | 0.35 | 0.35 | 0.35 | 92 | 1010.3 |
| 20260906090013 | 67 | 357 | 16.0 | 22.0 | 0.26 | 0.26 | 0.26 | 91 | 1010.5 |
| 20260906084510 | 67 | 335 | 14.0 | 19.0 | 0.13 | 0.13 | 0.13 | 89 | 1010.8 |
| 20260906083012 | 69 | 354 | 13.0 | 20.0 | 0.00 | 0.00 | 0.00 | 84 | 1010.3 |
| 20260906081502 | 72 | 330 | 11.0 | 22.0 | 0.00 | 0.00 | 0.00 | 75 | 1010.2 |
| 20260906080056 | 75 | 334 | 14.0 | 28.0 | 0.00 | 0.00 | 0.00 | 69 | 1009.9 |
| 20260906074609 | 76 | 290 | 10.0 | 16.0 | 0.00 | 0.00 | 0.00 | 68 | 1009.1 |
| 20260906073050 | 76 | 82 | 1.0 | 3.0 | 0.00 | 0.00 | 0.00 | 68 | 1008.1 |
| 20260906071549 | 76 | 110 | 0.0 | 3.0 | 0.00 | 0.00 | 0.00 | 67 | 1008.5 |
| 20260906070048 | 77 | 191 | 4.0 | 8.0 | 0.00 | 0.00 | 0.00 | 65 | 1008.3 |
| 20260906064547 | 77 | 145 | 5.0 | 8.0 | 0.00 | 0.00 | 0.00 | 64 | 1008.1 |
| 20260906063045 | 78 | 158 | 4.0 | 7.0 | 0.00 | 0.00 | 0.00 | 63 | 1008.1 |
| 20260906061544 | 78 | 153 | 6.0 | 10.0 | 0.00 | 0.00 | 0.00 | 62 | 1008.3 |
| 20260906060042 | 78 | 164 | 5.0 | 10.0 | 0.00 | 0.00 | 0.00 | 63 | 1008.2 |
| 20260906054539 | 78 | 167 | 8.0 | 12.0 | 0.00 | 0.00 | 0.00 | 64 | 1008.0 |
| 20260906053037 | 77 | 187 | 7.0 | 11.0 | 0.00 | 0.00 | 0.00 | 65 | 1008.0 |
| 20260906051541 | 77 | 200 | 6.0 | 9.0 | 0.00 | 0.00 | 0.00 | 65 | 1007.9 |
| 20260906050044 | 77 | 184 | 3.0 | 6.0 | 0.00 | 0.00 | 0.00 | 66 | 1008.0 |
| 20260906044537 | 78 | 189 | 3.0 | 7.0 | 0.00 | 0.00 | 0.00 | 64 | 1008.0 |
| 20260906043032 | 78 | 186 | 4.0 | 6.0 | 0.00 | 0.00 | 0.00 | 64 | 1008.0 |
| 20260906041535 | 78 | 161 | 2.0 | 5.0 | 0.00 | 0.00 | 0.00 | 62 | 1008.0 |
| 20260906040031 | 79 | 158 | 2.0 | 6.0 | 0.00 | 0.00 | 0.00 | 61 | 1008.1 |
| 20260906034530 | 79 | 137 | 3.0 | 7.0 | 0.00 | 0.00 | 0.00 | 61 | 1008.0 |
| 20260906033040 | 80 | 137 | 3.0 | 7.0 | 0.00 | 0.00 | 0.00 | 59 | 1007.8 |
| 20260906031531 | 80 | 160 | 3.0 | 5.0 | 0.00 | 0.00 | 0.00 | 59 | 1007.5 |
| 20260906030030 | 81 | 119 | 2.0 | 6.0 | 0.00 | 0.00 | 0.00 | 57 | 1007.4 |
| 20260906024528 | 81 | 205 | 3.0 | 6.0 | 0.00 | 0.00 | 0.00 | 57 | 1007.5 |
| 20260906023028 | 82 | 152 | 2.0 | 3.0 | 0.00 | 0.00 | 0.00 | 56 | 1007.6 |
| 20260906021528 | 83 | 141 | 4.0 | 8.0 | 0.00 | 0.00 | 0.00 | 53 | 1007.2 |
| 20260906020028 | 84 | 140 | 5.0 | 9.0 | 0.00 | 0.00 | 0.00 | 52 | 1007.1 |
| 20260906014528 | 85 | 173 | 6.0 | 13.0 | 0.00 | 0.00 | 0.00 | 49 | 1007.0 |
| 20260906013026 | 85 | 134 | 15.0 | 20.0 | 0.00 | 0.00 | 0.00 | 48 | 1007.0 |
| 20260906011534 | 85 | 101 | 3.0 | 5.0 | 0.00 | 0.00 | 0.00 | 47 | 1006.6 |
| 20260906010025 | 87 | 100 | 1.0 | 3.0 | 0.00 | 0.00 | 0.00 | 46 | 1006.5 |
| 20260906004524 | 88 | 98 | 2.0 | 4.0 | 0.00 | 0.00 | 0.00 | 43 | 1006.6 |
| 20260906003024 | 89 | 104 | 4.0 | 7.0 | 0.00 | 0.00 | 0.00 | 42 | 1006.6 |
| 20260906001524 | 90 | 105 | 4.0 | 9.0 | 0.00 | 0.00 | 0.00 | 40 | 1006.4 |
| 20260906000023 | 91 | 108 | 7.0 | 11.0 | 0.00 | 0.00 | 0.00 | 39 | 1006.4 |
| 20260905234523 | 92 | 119 | 8.0 | 12.0 | 0.00 | 0.00 | 0.00 | 36 | 1006.2 |
| 20260905233021 | 93 | 102 | 7.0 | 15.0 | 0.00 | 0.00 | 0.00 | 35 | 1006.0 |
| 20260905231523 | 95 | 99 | 11.0 | 17.0 | 0.00 | 0.00 | 0.00 | 34 | 1005.9 |
| 20260905230021 | 96 | 102 | 12.0 | 18.0 | 0.00 | 0.00 | 0.00 | 32 | 1005.9 |
| 20260905224531 | 96 | 131 | 13.0 | 19.0 | 0.00 | 0.00 | 0.00 | 32 | 1005.8 |
| 20260905223019 | 96 | 111 | 13.0 | 18.0 | 0.00 | 0.00 | 0.00 | 33 | 1006.0 |
| 20260905221518 | 96 | 112 | 12.0 | 17.0 | 0.00 | 0.00 | 0.00 | 32 | 1006.1 |
| 20260905220018 | 96 | 115 | 13.0 | 20.0 | 0.00 | 0.00 | 0.00 | 31 | 1006.2 |
| 20260905214516 | 96 | 136 | 14.0 | 23.0 | 0.00 | 0.00 | 0.00 | 33 | 1006.3 |
| 20260905213015 | 96 | 124 | 14.0 | 23.0 | 0.00 | 0.00 | 0.00 | 34 | 1006.4 |
| 20260905211514 | 96 | 124 | 16.0 | 23.0 | 0.00 | 0.00 | 0.00 | 32 | 1006.6 |
| 20260905210013 | 96 | 97 | 15.0 | 22.0 | 0.00 | 0.00 | 0.00 | 32 | 1006.8 |
| 20260905204517 | 97 | 96 | 13.0 | 21.0 | 0.00 | 0.00 | 0.00 | 32 | 1006.9 |
| 20260905203011 | 96 | 141 | 15.0 | 23.0 | 0.00 | 0.00 | 0.00 | 32 | 1007.0 |